This is the latest recevied weather packets stored in our database for station/object IK6IHU-3. If no packets are shown the sender has not sent any weather packets the latest 10 day(s).
| Time | Temp. | Humidity | Pressure | Rain* | Wind** | Luminosity | Snow |
|---|---|---|---|---|---|---|---|
| 1777375747 | 22.78° C | 53% | 1014.6 hPa | 0 mm | - | 0 W/m² | - |
| 1777375567 | 22.78° C | 53% | 1014.5 hPa | 0 mm | - | 0 W/m² | - |
| 1777375447 | 22.22° C | 51% | 1014.9 hPa | 0 mm | - | 0 W/m² | - |
| 1777375327 | 22.22° C | 53% | 1014.8 hPa | 0 mm | - | 0 W/m² | - |
| 1777375267 | 22.78° C | 55% | 1014.8 hPa | 0 mm | - | 0 W/m² | - |
| 1777374967 | 22.22° C | 52% | 1014.6 hPa | 0 mm | - | 0 W/m² | - |
| 1777374787 | 22.22° C | 52% | 1014.7 hPa | 0 mm | - | 0 W/m² | - |
| 1777374667 | 22.78° C | 55% | 1014.8 hPa | 0 mm | - | 0 W/m² | - |
| 1777374607 | 22.78° C | 54% | 1014.7 hPa | 0 mm | - | 0 W/m² | - |
| 1777374547 | 22.22° C | 53% | 1014.7 hPa | 0 mm | - | 0 W/m² | - |
| 1777374426 | 21.67° C | 52% | 1014.8 hPa | 0 mm | - | 0 W/m² | - |
| 1777374367 | 22.22° C | 54% | 1014.9 hPa | 0 mm | - | 0 W/m² | - |
| 1777374187 | 22.78° C | 53% | 1014.9 hPa | 0 mm | - | 0 W/m² | - |
| 1777374127 | 22.78° C | 54% | 1015 hPa | 0 mm | - | 0 W/m² | - |
| 1777373947 | 22.22° C | 52% | 1015 hPa | 0 mm | - | 0 W/m² | - |
| 1777373767 | 22.78° C | 56% | 1014.8 hPa | 0 mm | - | 0 W/m² | - |
| 1777373707 | 22.22° C | 55% | 1014.9 hPa | 0 mm | - | 0 W/m² | - |
| 1777373647 | 22.22° C | 53% | 1015 hPa | 0 mm | - | 0 W/m² | - |
| 1777373467 | 22.22° C | 54% | 1015 hPa | 0 mm | - | 0 W/m² | - |
| 1777373407 | 22.22° C | 54% | 1015 hPa | 0 mm | - | 0 W/m² | - |
| 1777373287 | 22.22° C | 55% | 1014.9 hPa | 0 mm | - | 0 W/m² | - |
| 1777373107 | 22.22° C | 57% | 1015.1 hPa | 0 mm | - | 0 W/m² | - |
| 1777372927 | 22.22° C | 57% | 1015.2 hPa | 0 mm | - | 0 W/m² | - |
| 1777372687 | 22.22° C | 58% | 1015.1 hPa | 0 mm | - | 0 W/m² | - |
| 1777372626 | 22.22° C | 58% | 1015.3 hPa | 0 mm | - | 0 W/m² | - |
* Rain latest hour (hover to see other rain measurements)
** Current wind speed in m/s (hover to see current wind gust speed)